Terug naar catalogus

STARLINK-32358

ActiefCommunicatieVLEO
NORAD 61531·PAYLOAD·🇺🇸 United States

Gelanceerd Oct 15, 2024 vanaf Cape Canaveral Space Force Station

Loading…

Volgende Passages (komende 24 uur)

TLE

VersSource: CelesTrak SupGP

Epoch: Sep 14, 2026, 21:12 UTC

1 61531C 24183Y   26257.88381944 -.00015727  00000+0 -46507-3 0  2576
2 61531  53.1588 334.2116 0001346  77.4104 217.0640 15.34370203    14

Volg STARLINK-32358 in realtime met AllMySat

Download on the App Store